Retour au catalogue

STARLINK-35529

ActifCommunicationsVLEO
NORAD 66259·PAYLOAD·🇺🇸 United States

Lancé Oct 29, 2025 depuis Cape Canaveral Space Force Station

Loading…

Prochains Passages (prochaines 24 heures)

TLE

FraisSource: CelesTrak SupGP

Époque: Sep 15, 2026, 04:15 UTC

1 66259C 25245AB  26258.17756944  .00011479  00000+0  36910-3 0  2583
2 66259  53.1562 122.6088 0001128  79.5493 289.3654 15.31700115    10

Suivez STARLINK-35529 en temps réel avec AllMySat

Download on the App Store